| time (UTC) | temp C | wind direction | speed KPH | gust KPH | rain 1hr cm | rain 24hr cm | rain mn cm | humidity % | barometer mb |
| 20260905122504 | 18 | 270 | 24.1 | 24.1 | 0.00 | 0.00 | 0.00 | 52 | 1023.0 |
| 20260905122004 | 18 | 270 | 24.1 | 24.1 | 0.00 | 0.00 | 0.00 | 52 | 1023.0 |
| 20260905120504 | 18 | 270 | 24.1 | 25.7 | 0.00 | 0.00 | 0.00 | 52 | 1023.0 |
| 20260905115504 | 18 | 270 | 25.7 | 25.7 | 0.00 | 0.00 | 0.00 | 52 | 1023.0 |
| 20260905114004 | 18 | 270 | 25.7 | 25.7 | 0.00 | 0.00 | 0.00 | 52 | 1023.0 |
| 20260905113504 | 18 | 270 | 25.7 | 25.7 | 0.00 | 0.00 | 0.00 | 52 | 1023.0 |
| 20260905113005 | 18 | 270 | 25.7 | 25.7 | 0.00 | 0.00 | 0.00 | 52 | 1023.0 |
| 20260905112503 | 18 | 270 | 25.7 | 25.7 | 0.00 | 0.00 | 0.00 | 52 | 1023.0 |
| 20260905111004 | 18 | 270 | 25.7 | 25.7 | 0.00 | 0.00 | 0.00 | 52 | 1023.0 |
| 20260905110004 | 18 | 270 | 25.7 | 25.7 | 0.00 | 0.00 | 0.00 | 52 | 1023.0 |
| 20260905105003 | 17 | 280 | 22.5 | 22.5 | 0.00 | 0.00 | 0.00 | 63 | 1022.0 |
| 20260905104504 | 17 | 280 | 22.5 | 22.5 | 0.00 | 0.00 | 0.00 | 63 | 1022.0 |
| 20260905103504 | 17 | 280 | 22.5 | 22.5 | 0.00 | 0.00 | 0.00 | 63 | 1022.0 |
| 20260905101504 | 17 | 280 | 22.5 | 22.5 | 0.00 | 0.00 | 0.00 | 63 | 1022.0 |
| 20260905101004 | 17 | 280 | 22.5 | 22.5 | 0.00 | 0.00 | 0.00 | 63 | 1022.0 |
| 20260905100504 | 17 | 280 | 22.5 | 24.1 | 0.00 | 0.00 | 0.00 | 63 | 1022.0 |
| 20260905095504 | 16 | 270 | 24.1 | 24.1 | 0.00 | 0.00 | 0.00 | 67 | 1022.0 |
| 20260905094504 | 16 | 270 | 24.1 | 24.1 | 0.00 | 0.00 | 0.00 | 67 | 1022.0 |
| 20260905094004 | 16 | 270 | 24.1 | 24.1 | 0.00 | 0.00 | 0.00 | 67 | 1022.0 |
| 20260905093004 | 16 | 270 | 24.1 | 24.1 | 0.00 | 0.00 | 0.00 | 67 | 1022.0 |
| 20260905092504 | 16 | 270 | 24.1 | 24.1 | 0.00 | 0.00 | 0.00 | 67 | 1022.0 |
| 20260905091004 | 16 | 270 | 24.1 | 24.1 | 0.00 | 0.00 | 0.00 | 67 | 1022.0 |
| 20260905090004 | 16 | 270 | 24.1 | 24.1 | 0.00 | 0.00 | 0.00 | 67 | 1022.0 |
| 20260905085504 | 15 | 270 | 22.5 | 22.5 | 0.00 | 0.00 | 0.00 | 72 | 1021.0 |
| 20260905085004 | 15 | 270 | 22.5 | 22.5 | 0.00 | 0.00 | 0.00 | 72 | 1021.0 |
| 20260905083504 | 15 | 270 | 22.5 | 22.5 | 0.00 | 0.00 | 0.00 | 72 | 1021.0 |
| 20260905081504 | 15 | 270 | 22.5 | 22.5 | 0.00 | 0.00 | 0.00 | 72 | 1021.0 |
| 20260905081004 | 15 | 270 | 22.5 | 22.5 | 0.00 | 0.00 | 0.00 | 72 | 1021.0 |
| 20260905080504 | 15 | 270 | 22.5 | 22.5 | 0.00 | 0.00 | 0.00 | 72 | 1021.0 |
| 20260905073005 | 13 | 260 | 22.5 | 22.5 | 0.00 | 0.00 | 0.00 | 76 | 1020.0 |
| 20260905072004 | 13 | 260 | 22.5 | 22.5 | 0.00 | 0.00 | 0.00 | 76 | 1020.0 |
| 20260905071004 | 13 | 260 | 22.5 | 22.5 | 0.00 | 0.00 | 0.00 | 76 | 1020.0 |
| 20260905070505 | 13 | 260 | 22.5 | 22.5 | 0.00 | 0.00 | 0.00 | 76 | 1020.0 |
| 20260905063504 | 15 | 230 | 19.3 | 19.3 | 0.00 | 0.00 | 0.00 | 76 | 1015.9 |
| 20260905063004 | 15 | 230 | 19.3 | 19.3 | 0.00 | 0.00 | 0.00 | 76 | 1015.9 |
| 20260905062503 | 15 | 230 | 19.3 | 19.3 | 0.00 | 0.00 | 0.00 | 76 | 1015.9 |
| 20260904210504 | 15 | 230 | 19.3 | 24.1 | 0.00 | 0.00 | 0.00 | 76 | 1015.9 |
| 20260904210004 | 15 | 230 | 19.3 | 24.1 | 0.00 | 0.00 | 0.00 | 76 | 1015.9 |
| 20260904205504 | 16 | 240 | 24.1 | 24.1 | 0.00 | 0.00 | 0.00 | 72 | 1015.9 |
| 20260904204004 | 16 | 240 | 24.1 | 24.1 | 0.00 | 0.00 | 0.00 | 72 | 1015.9 |
| 20260904201504 | 16 | 240 | 24.1 | 24.1 | 0.00 | 0.00 | 0.00 | 72 | 1015.9 |
| 20260904200504 | 16 | 240 | 24.1 | 29.0 | 0.00 | 0.00 | 0.00 | 72 | 1015.9 |
| 20260904200004 | 16 | 240 | 24.1 | 29.0 | 0.00 | 0.00 | 0.00 | 72 | 1015.9 |
| 20260904195004 | 17 | 250 | 29.0 | 29.0 | 0.00 | 0.00 | 0.00 | 63 | 1014.9 |
| 20260904193504 | 17 | 250 | 29.0 | 29.0 | 0.00 | 0.00 | 0.00 | 63 | 1014.9 |
| 20260904193004 | 17 | 250 | 29.0 | 29.0 | 0.00 | 0.00 | 0.00 | 63 | 1014.9 |
| 20260904192503 | 17 | 250 | 29.0 | 29.0 | 0.00 | 0.00 | 0.00 | 63 | 1014.9 |
| 20260904184504 | 17 | 250 | 25.7 | 25.7 | 0.00 | 0.00 | 0.00 | 59 | 1013.9 |
| 20260904184004 | 17 | 250 | 25.7 | 25.7 | 0.00 | 0.00 | 0.00 | 59 | 1013.9 |
| 20260904183504 | 17 | 250 | 25.7 | 25.7 | 0.00 | 0.00 | 0.00 | 59 | 1013.9 |
| 20260904183004 | 17 | 250 | 25.7 | 25.7 | 0.00 | 0.00 | 0.00 | 59 | 1013.9 |
| 20260904181504 | 17 | 250 | 25.7 | 25.7 | 0.00 | 0.00 | 0.00 | 59 | 1013.9 |
| 20260904180004 | 17 | 250 | 25.7 | 32.2 | 0.00 | 0.00 | 0.00 | 59 | 1013.9 |
| 20260904175504 | 17 | 250 | 32.2 | 32.2 | 0.00 | 0.00 | 0.00 | 59 | 1012.9 |
| 20260904174505 | 17 | 250 | 32.2 | 32.2 | 0.00 | 0.00 | 0.00 | 59 | 1012.9 |
| 20260904174004 | 17 | 250 | 32.2 | 32.2 | 0.00 | 0.00 | 0.00 | 59 | 1012.9 |
| 20260904173004 | 17 | 250 | 32.2 | 32.2 | 0.00 | 0.00 | 0.00 | 59 | 1012.9 |
| 20260904170004 | 17 | 250 | 32.2 | 59.5 | 0.00 | 0.00 | 0.00 | 59 | 1012.9 |
| 20260904164504 | 17 | 270 | 33.8 | 59.5 | 0.00 | 0.00 | 0.00 | 59 | 1012.9 |
| 20260904164004 | 17 | 270 | 33.8 | 59.5 | 0.00 | 0.00 | 0.00 | 59 | 1012.9 |
| 20260904163504 | 17 | 270 | 33.8 | 59.5 | 0.00 | 0.00 | 0.00 | 59 | 1012.9 |
| 20260904163005 | 17 | 270 | 33.8 | 59.5 | 0.00 | 0.00 | 0.00 | 59 | 1012.9 |
| 20260904162504 | 17 | 270 | 33.8 | 59.5 | 0.00 | 0.00 | 0.00 | 59 | 1012.9 |
| 20260904155504 | 18 | 260 | 41.8 | 41.8 | 0.00 | 0.00 | 0.00 | 52 | 1011.9 |
| 20260904153004 | 18 | 260 | 41.8 | 41.8 | 0.00 | 0.00 | 0.00 | 52 | 1011.9 |
| 20260904151505 | 18 | 260 | 41.8 | 41.8 | 0.00 | 0.00 | 0.00 | 52 | 1011.9 |
| 20260904150004 | 18 | 260 | 41.8 | 69.2 | 0.00 | 0.00 | 0.00 | 52 | 1011.9 |
| 20260904145004 | 20 | 260 | 40.2 | 69.2 | 0.00 | 0.00 | 0.00 | 52 | 1011.9 |
| 20260904144504 | 20 | 260 | 40.2 | 69.2 | 0.00 | 0.00 | 0.00 | 52 | 1011.9 |
| 20260904144004 | 20 | 260 | 40.2 | 69.2 | 0.00 | 0.00 | 0.00 | 52 | 1011.9 |
| 20260904143504 | 20 | 260 | 40.2 | 69.2 | 0.00 | 0.00 | 0.00 | 52 | 1011.9 |
| 20260904142504 | 20 | 260 | 40.2 | 69.2 | 0.00 | 0.00 | 0.00 | 52 | 1011.9 |
| 20260904142005 | 20 | 260 | 40.2 | 69.2 | 0.00 | 0.00 | 0.00 | 52 | 1011.9 |
| 20260904141505 | 20 | 260 | 40.2 | 69.2 | 0.00 | 0.00 | 0.00 | 52 | 1011.9 |
| 20260904141004 | 20 | 260 | 40.2 | 69.2 | 0.00 | 0.00 | 0.00 | 52 | 1011.9 |
| 20260904140504 | 20 | 260 | 40.2 | 69.2 | 0.00 | 0.00 | 0.00 | 52 | 1011.9 |
| 20260904135504 | 20 | 270 | 40.2 | 69.2 | 0.00 | 0.00 | 0.00 | 52 | 1010.8 |
| 20260904133004 | 20 | 270 | 40.2 | 69.2 | 0.00 | 0.00 | 0.00 | 52 | 1010.8 |
| 20260904132004 | 20 | 270 | 40.2 | 69.2 | 0.00 | 0.00 | 0.00 | 52 | 1010.8 |
| 20260904130004 | 20 | 270 | 40.2 | 74.0 | 0.00 | 0.00 | 0.00 | 52 | 1010.8 |
| 20260904125504 | 18 | 260 | 46.7 | 74.0 | 0.00 | 0.00 | 0.00 | 55 | 1010.8 |
| 20260904125004 | 18 | 260 | 46.7 | 74.0 | 0.00 | 0.00 | 0.00 | 55 | 1010.8 |
| 20260904124503 | 18 | 260 | 46.7 | 74.0 | 0.00 | 0.00 | 0.00 | 55 | 1010.8 |